Eilat, Israel

10:19 PM IST on February 19, 2018 (GMT +0200)
Eilat

Weather History for LLET - November, 2012

Change the Weather History Date:

Monday, November 26, 2012

  Actual Average Record
Temperature  
Mean Temperature 68 °F -  
Max Temperature 77 °F 71 °F 90 °F (2013)
Min Temperature 58 °F 54 °F 51 °F (2001)
Cooling Degree Days 2    
Growing Degree Days 18 (Base 50)    
Moisture  
Dew Point 48 °F    
Average Humidity 47    
Maximum Humidity 77    
Minimum Humidity 25    
Precipitation  
Precipitation 0.00 in 0.01 in - ()
Sea Level Pressure  
Sea Level Pressure 30.03 in    
Wind  
Wind Speed 7 mph ()    
Max Wind Speed 15 mph    
Max Gust Speed -    
Visibility 12.0 miles    
Events      
Averages and records for this station are not official NWS values.
T = Trace of Precipitation, MM = Missing Value Source: Averaged Metar Reports

Daily Weather History Graph

Daily Weather History Graph

Search for Another Location

Airport or City:

Trip Planner

Search our weather history database for the weather conditions in past years. The results will help you decide how hot, cold, wet, or windy it might be!

Date:

Astronomy

Nov. 26, 2012 Rise Set
Actual Time 6:13 AM IST 4:41 PM IST
Civil Twilight 5:47 AM IST 5:07 PM IST
Nautical Twilight 5:18 AM IST 5:36 PM IST
Astronomical Twilight 4:50 AM IST 6:04 PM IST
Moon 3:16 PM IST (11/26) 4:10 AM IST (11/26)
Length of Visible Light 11h 19m
Length of Day
10h 27m
Waxing Gibbous, 96% of the Moon is Illuminated
Nov 26
Waxing Gibbous
Nov 28
Full
Dec 6
Last Quarter
Dec 13
New
Dec 20
First Quarter

Hourly Weather History & Observations

Time (IST) Temp. Dew Point Humidity Pressure Visibility Wind Dir Wind Speed Gust Speed Precip Events Conditions
2:00 AM 62 °F 51 °F 59%  in - NE 3.5 mph - -  
5:50 AM 60.8 °F 51.8 °F 72% 30.04 in - NE 5.8 mph - N/A   Clear
6:50 AM 59.0 °F 51.8 °F 77% 30.04 in - NNE 5.8 mph - N/A   Clear
7:50 AM 60.8 °F 51.8 °F 72% 30.06 in - NNE 5.8 mph - N/A   Clear
8:00 AM 64 °F 52 °F 55% 30.08 in - ENE 3.5 mph - -  
8:50 AM 66.2 °F 51.8 °F 60% 30.06 in - NNE 10.4 mph - N/A   Clear
9:50 AM 69.8 °F 51.8 °F 53% 30.09 in - NNE 11.5 mph - N/A   Clear
10:50 AM 71.6 °F 51.8 °F 50% 30.06 in - NNE 11.5 mph - N/A   Clear
11:50 AM 73.4 °F 50.0 °F 44% 30.04 in - NNE 12.7 mph - N/A   Clear
12:50 PM 75.2 °F 50.0 °F 41% 30.01 in - NE 11.5 mph - N/A   Clear
1:50 PM 77.0 °F 48.2 °F 36% 29.98 in - NE 13.8 mph - N/A   Clear
2:00 PM 77 °F 48 °F 25% 29.99 in - NE 5.8 mph - -  
2:50 PM 77.0 °F 46.4 °F 34% 29.98 in - NNE 15.0 mph - N/A   Clear
3:50 PM 77.0 °F 44.6 °F 32% 29.98 in - NNE 13.8 mph - N/A   Clear
4:50 PM 75.2 °F 44.6 °F 34% 29.98 in - NNE 15.0 mph - N/A   Clear
5:50 PM 73.4 °F 44.6 °F 36% 30.01 in - North 12.7 mph - N/A   Clear
6:50 PM 71.6 °F 46.4 °F 41% 30.01 in - North 10.4 mph - N/A   Clear
7:50 PM 69.8 °F 44.6 °F 40% 30.04 in - North 8.1 mph - N/A   Clear
8:00 PM 70 °F 45 °F 30% 30.05 in 12 mi NNW 4.6 mph - -  
8:50 PM 66.2 °F 46.4 °F 49% 30.04 in - NE 6.9 mph - N/A   Clear
9:50 PM 68.0 °F 44.6 °F 43% 30.04 in - NNE 11.5 mph - N/A   Clear